Regional Weather Roundup
Issued by NWS

Home | Current Version | Previous Version | Text Only | Print | Product List | Glossary Off
Versions: 1 2 3 4 5 6 7 8 9 10 11 12 13 14 15 16 17 18 19 20 21 22 23 24 25 26 27 28 29 30 31 32 33 34 35 36 37 38 39 40 41 42 43 44 45 46 47 48 49 50

000
ASUS44 KMEG 311200
RWRTN
TENNESSEE HOURLY STATE WEATHER ROUNDUP
NATIONAL WEATHER SERVICE MEMPHIS TN
700 AM CDT FRI JUL 31 2015

TNZ002-004-019-021-049-052-054-088>092-311300-
WEST TENNESSEE

CITY           SKY/WX    TMP DP  RH WIND       PRES   REMARKS
MEMPHIS INTL   PTCLDY    74  66  76 NE7       30.10R
NWS MEMPHIS      N/A     68 N/A N/A MISG        N/A
JACKSON        SUNNY     67  63  87 CALM      30.10R
DYERSBURG        N/A    N/A N/A N/A MISG        N/A
PARIS          SUNNY     64  63  94 CALM      30.11S
LEXINGTON      SUNNY     64  64 100 CALM      30.09S
$$

TNZ008-025-027-028-033-062-065-066-311300-
NORTH MIDDLE TENNESSEE

CITY           SKY/WX    TMP DP  RH WIND       PRES   REMARKS
NASHVILLE      MOSUNNY   67  65  93 CALM      30.09S
CLARKSVILLE    SUNNY     67  65  93 W3        30.10R
CROSSVILLE     SUNNY     66  58  75 NE3       30.13R
$$

TNZ061-075-076-078-094-096-097-311300-
SOUTH MIDDLE TENNESSEE

CITY           SKY/WX    TMP DP  RH WIND       PRES   REMARKS
FAYETTEVILLE   SUNNY     64  59  82 N7        30.08R
TULLAHOMA      SUNNY     66  61  82 CALM      30.10R
WINCHESTER     SUNNY     64  61  88 CALM      30.08S
MCMINNVILLE    SUNNY     64  64 100 CALM      30.09S
COLUMBIA       SUNNY     66  66 100 CALM      30.08S
SHELBYVILLE    SUNNY     66  64  94 N7        30.10R
$$

TNZ017-018-042-046-047-311300-
NORTHEAST TENNESSEE

CITY           SKY/WX    TMP DP  RH WIND       PRES   REMARKS
TRI CITIES     MOSUNNY   65  62  90 CALM      30.10R
ELIZABETHTON   SUNNY     63  59  88 CALM      30.11S
$$

TNZ012-013-036-069-073-074-311300-
CENTRAL EAST TENNESSEE

CITY           SKY/WX    TMP DP  RH WIND       PRES   REMARKS
KNOXVILLE      MOSUNNY   71  61  70 N8        30.06R
OAK RIDGE      SUNNY     68  62  81 CALM      30.08S
GATLINBURG     SUNNY     70  64  83 CALM      30.07R
$$

TNZ083-085-099-311300-
SOUTHEAST TENNESSEE

CITY           SKY/WX    TMP DP  RH WIND       PRES   REMARKS
CHATTANOOGA    MOSUNNY   74  58  57 N9        30.04R
$$

SKY/WX REPORTED AS FAIR MEANS FEW OR NO CLOUDS BELOW
12 THOUSAND FEET.




USA.gov is the U.S. government's official web portal to all federal, state and local government web resources and services.